| time (UTC) | temp F | wind direction | speed MPH | gust MPH | rain 1hr in | rain 24hr in | rain mn in | humidity % | barometer mb |
| 20260504201529 | 78 | 159 | 7.0 | 11.0 | 0.00 | 0.00 | 0.00 | 61 | 1010.3 |
| 20260504200028 | 77 | 212 | 7.0 | 18.0 | 0.00 | 0.00 | 0.00 | 63 | 1010.6 |
| 20260504194525 | 76 | 139 | 8.0 | 16.0 | 0.00 | 0.00 | 0.00 | 64 | 1011.1 |
| 20260504193024 | 78 | 209 | 7.0 | 15.0 | 0.00 | 0.00 | 0.00 | 61 | 1011.2 |
| 20260504191524 | 76 | 142 | 6.0 | 12.0 | 0.00 | 0.00 | 0.00 | 64 | 1011.3 |
| 20260504190021 | 77 | 195 | 9.0 | 17.0 | 0.00 | 0.00 | 0.00 | 62 | 1011.2 |
| 20260504184537 | 76 | 189 | 8.0 | 15.0 | 0.00 | 0.00 | 0.00 | 64 | 1011.4 |
| 20260504183018 | 76 | 209 | 9.0 | 17.0 | 0.00 | 0.00 | 0.00 | 65 | 1011.6 |
| 20260504181518 | 77 | 217 | 8.0 | 16.0 | 0.00 | 0.00 | 0.00 | 63 | 1011.9 |
| 20260504180012 | 76 | 244 | 7.0 | 14.0 | 0.00 | 0.00 | 0.00 | 65 | 1012.0 |
| 20260504174508 | 74 | 206 | 6.0 | 17.0 | 0.00 | 0.00 | 0.00 | 68 | 1012.2 |
| 20260504173013 | 73 | 165 | 8.0 | 19.0 | 0.00 | 0.00 | 0.00 | 69 | 1012.5 |
| 20260504171504 | 73 | 192 | 8.0 | 17.0 | 0.00 | 0.00 | 0.00 | 69 | 1012.5 |
| 20260504081553 | 62 | 184 | 9.0 | 16.0 | 0.00 | 0.00 | 0.00 | 79 | 1014.5 |
| 20260504050013 | 66 | 219 | 8.0 | 15.0 | 0.00 | 0.00 | 0.00 | 62 | 1016.4 |
| 20260504044514 | 66 | 165 | 4.0 | 9.0 | 0.00 | 0.00 | 0.00 | 61 | 1016.6 |
| 20260504043013 | 66 | 173 | 3.0 | 9.0 | 0.00 | 0.00 | 0.00 | 59 | 1016.5 |
| 20260504041512 | 66 | 201 | 3.0 | 8.0 | 0.00 | 0.00 | 0.00 | 57 | 1016.4 |
| 20260504040015 | 66 | 260 | 2.0 | 6.0 | 0.00 | 0.00 | 0.00 | 56 | 1016.5 |
| 20260504034517 | 65 | 211 | 2.0 | 6.0 | 0.00 | 0.00 | 0.00 | 56 | 1016.4 |
| 20260504033010 | 65 | 173 | 2.0 | 4.0 | 0.00 | 0.00 | 0.00 | 56 | 1016.5 |
| 20260504031509 | 66 | 172 | 1.0 | 3.0 | 0.00 | 0.00 | 0.00 | 55 | 1016.5 |
| 20260504030009 | 67 | 172 | 0.0 | 4.0 | 0.00 | 0.00 | 0.00 | 55 | 1016.7 |
| 20260504024511 | 67 | 171 | 1.0 | 2.0 | 0.00 | 0.00 | 0.00 | 54 | 1016.6 |
| 20260504023008 | 67 | 172 | 0.0 | 3.0 | 0.00 | 0.00 | 0.00 | 53 | 1016.4 |
| 20260504021507 | 67 | 171 | 0.0 | 3.0 | 0.00 | 0.00 | 0.00 | 54 | 1016.5 |
| 20260504020007 | 68 | 172 | 1.0 | 3.0 | 0.00 | 0.00 | 0.00 | 51 | 1016.6 |
| 20260504014507 | 69 | 172 | 0.0 | 3.0 | 0.00 | 0.00 | 0.00 | 49 | 1016.5 |
| 20260504013008 | 70 | 172 | 1.0 | 6.0 | 0.00 | 0.00 | 0.00 | 47 | 1016.4 |
| 20260504011505 | 70 | 169 | 3.0 | 7.0 | 0.00 | 0.00 | 0.00 | 46 | 1016.4 |
| 20260504010004 | 71 | 170 | 3.0 | 6.0 | 0.00 | 0.00 | 0.00 | 45 | 1016.1 |
| 20260504004506 | 71 | 196 | 6.0 | 13.0 | 0.00 | 0.00 | 0.00 | 43 | 1016.3 |
| 20260504003002 | 72 | 151 | 5.0 | 13.0 | 0.00 | 0.00 | 0.00 | 43 | 1016.4 |
| 20260504001502 | 73 | 144 | 5.0 | 11.0 | 0.00 | 0.00 | 0.00 | 42 | 1016.5 |
| 20260504000003 | 74 | 174 | 4.0 | 13.0 | 0.00 | 0.00 | 0.00 | 43 | 1016.5 |
| 20260503234604 | 74 | 273 | 4.0 | 10.0 | 0.00 | 0.00 | 0.00 | 43 | 1016.4 |
| 20260503233100 | 74 | 161 | 5.0 | 16.0 | 0.00 | 0.00 | 0.00 | 42 | 1016.7 |
| 20260503231558 | 74 | 182 | 8.0 | 14.0 | 0.00 | 0.00 | 0.00 | 41 | 1016.6 |
| 20260503230100 | 75 | 171 | 4.0 | 11.0 | 0.00 | 0.00 | 0.00 | 41 | 1016.7 |
| 20260503224555 | 75 | 159 | 5.0 | 10.0 | 0.00 | 0.00 | 0.00 | 40 | 1016.8 |
| 20260503223054 | 76 | 210 | 7.0 | 13.0 | 0.00 | 0.00 | 0.00 | 41 | 1017.0 |
| 20260503221553 | 75 | 205 | 7.0 | 13.0 | 0.00 | 0.00 | 0.00 | 40 | 1016.8 |
| 20260503220051 | 77 | 201 | 4.0 | 14.0 | 0.00 | 0.00 | 0.00 | 39 | 1017.2 |
| 20260503214548 | 77 | 229 | 8.0 | 16.0 | 0.00 | 0.00 | 0.00 | 38 | 1017.4 |
| 20260503213047 | 77 | 180 | 8.0 | 18.0 | 0.00 | 0.00 | 0.00 | 37 | 1017.8 |
| 20260503211543 | 77 | 198 | 7.0 | 15.0 | 0.00 | 0.00 | 0.00 | 37 | 1018.1 |
| 20260503210043 | 76 | 146 | 8.0 | 14.0 | 0.00 | 0.00 | 0.00 | 37 | 1018.5 |
| 20260503204540 | 77 | 144 | 7.0 | 15.0 | 0.00 | 0.00 | 0.00 | 34 | 1019.0 |
| 20260503203042 | 77 | 221 | 5.0 | 11.0 | 0.00 | 0.00 | 0.00 | 35 | 1019.0 |